This demonstration page uses our WeatherBlox Daily Observations layout. Learn more.

Left ArrowRight Arrow

38.88101, -77.10428

Hourly Observations for July 7, 2021

Temp ( °F °C ) Dew Point ( °F °C ) Humidity (%) Winds ( mph kmh ) Pressure ( in mb ) Visibility ( mi km ) Precip ( " mm )
12:52 am 00:52 Mostly Cloudy 82 27.8 70 21.1 67 67 SSW 7 11 30.00 1016 10 16 N/A
1:52 am 01:52 Mostly Cloudy 81 27.2 71 21.7 72 72 S 6 9 30.00 1016 10 16 N/A
2:52 am 02:52 Mostly Cloudy 80 26.7 71 21.7 74 74 S 8 13 30.00 1016 10 16 N/A
3:52 am 03:52 Mostly Cloudy 78 25.6 70 21.1 76 76 S 7 11 30.00 1016 10 16 N/A
4:52 am 04:52 Mostly Cloudy 77 25 70 21.1 79 79 S 3 6 29.99 1016 10 16 N/A
5:52 am 05:52 Partly Cloudy 77 25 68 20 74 74 SSW 8 13 29.99 1016 10 16 N/A
6:52 am 06:52 Mostly Sunny 77 25 68 20 74 74 SW 6 9 30.01 1016 10 16 N/A
7:52 am 07:52 Mostly Sunny 79 26.1 69 20.6 72 72 SSW 7 11 30.01 1016 10 16 N/A
8:52 am 08:52 Mostly Sunny 82 27.8 70 21.1 67 67 S 5 7 30.01 1016 10 16 N/A
9:52 am 09:52 Hazy 84 28.9 72 22.2 67 67 SSE 5 7 30.01 1016 6 10 N/A
10:52 am 10:52 Hazy 87 30.6 72 22.2 61 61 SE 3 6 30.00 1016 6 10 N/A
11:52 am 11:52 Hazy 90 32.2 72 22.2 56 56 ESE 3 6 30.00 1016 6 10 N/A
12:52 pm 12:52 Hazy 92 33.3 73 22.8 54 54 SSE 5 7 29.98 1015 6 10 N/A
1:52 pm 13:52 Hazy 93 33.9 72 22.2 50 50 S 12 19 29.96 1015 6 10 N/A
2:52 pm 14:52 Hazy 92 33.3 76 24.4 60 60 S 13 20 29.95 1014 6 10 N/A
3:52 pm 15:52 Mostly Sunny 91 32.8 75 23.9 59 59 S 15 24 29.93 1014 10 16 N/A
4:52 pm 16:52 Mostly Sunny 90 32.2 75 23.9 62 62 S 14 22 29.92 1013 10 16 N/A
5:52 pm 17:52 Partly Cloudy 90 32.2 74 23.3 59 59 S 16 26 29.91 1013 10 16 N/A
6:52 pm 18:52 Mostly Sunny 89 31.7 68 20 50 50 S 12 19 29.91 1013 10 16 N/A
7:52 pm 19:52 Partly Cloudy 89 31.7 68 20 50 50 SSW 12 19 29.93 1014 10 16 N/A
8:52 pm 20:52 Mostly Cloudy 86 30 73 22.8 65 65 S 10 17 29.93 1014 10 16 N/A
9:52 pm 21:52 Partly Cloudy 85 29.4 73 22.8 68 68 S 8 13 29.94 1014 10 16 N/A
10:52 pm 22:52 Mostly Cloudy 84 28.9 71 21.7 65 65 S 8 13 29.95 1014 10 16 N/A
11:52 pm 23:52 Cloudy 83 28.3 71 21.7 67 67 S 9 15 29.94 1014 10 16 N/A

Powered by AerisWeather